Weather History for Little Rock, AR

Change the Weather History Date:

Friday, August 9, 2013

  Actual Average Record
Temperature  
Mean Temperature 83 °F 83 °F  
Max Temperature 93 °F 93 °F 108 °F (1936)
Min Temperature 73 °F 73 °F 58 °F (1989)
Degree Days  
Heating Degree Days 0 0  
Month to date heating degree days 0 0  
Since 1 June heating degree days 0 0  
Since 1 July heating degree days 0 0  
Cooling Degree Days 18 18  
Month to date cooling degree days 171 162  
Year to date cooling degree days 1368 1421  
Since 1 June cooling degree days 1107 1140  
Growing Degree Days 32 (Base 50)    
Moisture  
Dew Point 73 °F    
Average Humidity 72    
Maximum Humidity 87    
Minimum Humidity 56    
Precipitation  
Precipitation 0.00 in 0.08 in 1.43 in (2011)
Month to date precipitation 0.49 0.75  
Year to date precipitation 31.53 29.57  
Snow  
Snow 0.00 in 0.00 in - ()
Month to date snowfall 0.0 0.0  
Since 1 June snowfall 0.0 0.0  
Since 1 July snowfall 0.0 0.0  
Snow Depth 0.00 in    
Sea Level Pressure  
Sea Level Pressure 29.96 in    
Wind  
Wind Speed 5 mph (ENE)    
Max Wind Speed 15 mph    
Max Gust Speed 20 mph    
Visibility 10 miles    
Events      
T = Trace of Precipitation, MM = Missing Value Source: NWS Daily Summary

Daily Weather History Graph

Daily Weather History Graph

Search for Another Location

Airport:

Trip Planner

Search our weather history database for the weather conditions in past years. The results will help you decide how hot, cold, wet, or windy it might be!

Date:

Astronomy

Aug. 09, 2013 Rise Set
Actual Time 6:25 AM CDT 8:03 PM CDT
Civil Twilight 5:57 AM CDT 8:30 PM CDT
Nautical Twilight 5:25 AM CDT 9:02 PM CDT
Astronomical Twilight 4:50 AM CDT 9:36 PM CDT
Moon 9:02 AM CDT (8/9) 9:23 PM CDT (8/9)
Length of Visible Light 14h 32m
Length of Day
13h 38m
Waxing Crescent, 8% of the Moon is Illuminated
Aug 9
Waxing Crescent
Aug 14
First Quarter
Aug 20
Full
Aug 28
Last Quarter
Sep 5
New

Hourly Weather History & Observations

Time (CDT) Temp. Heat Index Dew Point Humidity Pressure Visibility Wind Dir Wind Speed Gust Speed Precip Events Conditions
12:53 AM 75.0 °F - 71.1 °F 87% 29.98 in 10.0 mi NE 6.9 mph - 0.00 in   Scattered Clouds
1:53 AM 73.9 °F - 70.0 °F 87% 29.94 in 10.0 mi Calm Calm - N/A   Clear
2:53 AM 73.0 °F - 70.0 °F 90% 29.91 in 10.0 mi South 4.6 mph - N/A   Clear
3:53 AM 73.9 °F - 70.0 °F 87% 29.92 in 10.0 mi Calm Calm - N/A   Scattered Clouds
4:53 AM 75.0 °F - 70.0 °F 84% 29.94 in 10.0 mi Calm Calm - N/A   Scattered Clouds
5:53 AM 73.9 °F - 70.0 °F 87% 29.94 in 10.0 mi Calm Calm - N/A   Mostly Cloudy
6:53 AM 73.0 °F - 70.0 °F 90% 29.95 in 10.0 mi Calm Calm - N/A   Mostly Cloudy
7:53 AM 77.0 °F - 72.0 °F 84% 29.97 in 10.0 mi Calm Calm - N/A   Mostly Cloudy
8:53 AM 80.1 °F 83.6 °F 71.1 °F 74% 29.99 in 10.0 mi NW 9.2 mph - N/A   Scattered Clouds
9:53 AM 82.9 °F 88.0 °F 72.0 °F 69% 30.01 in 10.0 mi NW 9.2 mph - N/A   Mostly Cloudy
10:53 AM 86.0 °F 92.2 °F 72.0 °F 63% 30.00 in 10.0 mi North 10.4 mph - N/A   Mostly Cloudy
11:53 AM 87.1 °F 93.6 °F 72.0 °F 61% 29.99 in 10.0 mi East 8.1 mph - N/A   Mostly Cloudy
12:53 PM 88.0 °F 95.6 °F 73.0 °F 61% 29.97 in 10.0 mi East 8.1 mph - N/A   Mostly Cloudy
1:53 PM 89.1 °F 97.0 °F 73.0 °F 59% 29.97 in 10.0 mi Variable 3.5 mph - N/A   Mostly Cloudy
2:53 PM 91.0 °F 99.3 °F 73.0 °F 55% 29.95 in 10.0 mi ESE 9.2 mph - N/A   Mostly Cloudy
3:53 PM 91.0 °F 100.4 °F 73.9 °F 57% 29.94 in 10.0 mi East 9.2 mph - N/A   Mostly Cloudy
4:53 PM 91.0 °F 99.3 °F 73.0 °F 55% 29.93 in 10.0 mi Calm Calm - N/A   Scattered Clouds
5:53 PM 91.9 °F 101.3 °F 73.9 °F 55% 29.93 in 10.0 mi East 8.1 mph - N/A   Scattered Clouds
6:53 PM 91.0 °F 100.4 °F 73.9 °F 57% 29.94 in 10.0 mi East 4.6 mph - N/A   Mostly Cloudy
7:53 PM 87.1 °F 97.3 °F 75.9 °F 69% 29.95 in 10.0 mi ESE 5.8 mph - N/A   Mostly Cloudy
8:53 PM 84.9 °F 95.3 °F 77.0 °F 77% 29.96 in 10.0 mi ENE 4.6 mph - N/A   Scattered Clouds
9:53 PM 84.0 °F 93.7 °F 77.0 °F 79% 29.99 in 10.0 mi ENE 5.8 mph - N/A   Scattered Clouds
10:53 PM 82.0 °F 90.2 °F 77.0 °F 85% 30.00 in 10.0 mi ENE 5.8 mph - N/A   Mostly Cloudy
11:53 PM 81.0 °F 87.3 °F 75.9 °F 85% 30.01 in 10.0 mi NE 5.8 mph - N/A   Mostly Cloudy